Weather in Bryansk

Russia / Republic of Dagestan     44°19′48″N   46°59′01″E
temp.,
°C
wind,
m/s
gust,
m/s
humid.,
%
clouds,
%
prec.,
mm/h
press.,
hPa
HPBL,
m
13 april, tue
tue1300:00+9ese47893 0.0 1022132
03:00+9ese349225 0.0 102250
06:00+9se379535 0.0 1023158
09:00+17se6956100 0.0 1022648
12:00+18e71043100 0.0 1021723
15:00+16e71046100 0.0 1020402
18:00+12e5106198 0.0 1020233
21:00+10e49693 0.0 1019137
14 april, wed
wed1400:00+9sse2264100 0.0 101811
03:00+10n225696 0.0 101615
06:00+10wsw2265100 0.0 101622
09:00+15w2354100 0.3 1016463
12:00+15ne325280 0.0 1015347
15:00+15ene4451100 0.0 1015243
18:00+14ssw1157100 0.0 101527
21:00+13w51075100 0.0 1016302
15 april, thu
thu1500:00+13wnw71173100 0.5 1014269
03:00+13wnw81470100 0.5 1014405
06:00+12wnw8127546 0.0 1014367
09:00+17wnw101254100 0.0 1014777
12:00+20nw884042 0.0 10141490
15:00+21nw67345 0.0 10141747
18:00+18nw484348 0.0 1014151
21:00+17nw334394 0.0 101545
16 april, fri
fri1600:00+16wnw45525 0.0 101463
03:00+13wnw486690 0.0 1015135
06:00+13wnw476690 0.0 1016125
09:00+19wnw344648 0.0 1017575
12:00+21n4436100 0.0 10161424
15:00+22ne33320 0.0 10151412
18:00+19ese454358 0.0 101589
21:00+15s45542 0.0 101677
17 april, sat
sat1700:00+13ssw225932 0.0 101710
03:00+12s2261100 0.0 101610
06:00+14sw1159100 0.0 101710
09:00+19nw5545100 0.0 1019808
12:00+18nnw7755100 0.0 10201055
15:00+17nnw7757100 0.0 10211214
18:00+15nw4665100 0.0 1021277
21:00+12nw4774100 0.0 1021192